Tracking 31027 objects as of 19-Jul-2025
HD Live streaming from Space Station
objects crossing your sky now

STARLINK-30221

Track STARLINK-30221 now!
10-day predictions
STARLINK-30221 is classified as:


NORAD ID: 57418
Int'l Code: 2023-102Q
Perigee: 565.6 km
Apogee: 566.8 km
Inclination: 43.0 °
Period: 95.8 minutes
Semi major axis: 6937 km
RCS: Unknown
Launch date: July 20, 2023
Source: United States (US)
Launch site: AIR FORCE WESTERN TEST RANGE (AFWTR)
Your satellite tracking list
FLOCK 3P 17
Track 1 satellite(s)




NASA's NSSDC Master Catalog

Two Line Element Set (TLE):
1 57418U 23102Q   25199.11330327 -.00000536  00000-0 -24635-4 0  9999
2 57418  43.0038  83.1853 0000867 248.0979 111.9771 15.02533938110955
Source of the keplerian elements: AFSPC